This demonstration page uses our WeatherBlox Daily Observations layout. Learn more.

Hourly Observations for August 22, 2015

Temp ( °F °C ) Dew Point ( °F °C ) Humidity (%) Winds ( mph kmh ) Pressure ( in mb ) Visibility ( mi km ) Precip ( " mm )
12:15 am 00:15 Clear 70 21 66 19 88 88 S 14 22 29.68 1005 7 11.265408 0 0
12:35 am 00:35 Clear 70 21 66 19 88 88 S 15 24 29.68 1005 7 11.265408 0 0
12:55 am 00:55 Clear 70 21 66 19 88 88 S 15 24 29.74 1007 7 11.265408 0 0
1:15 am 01:15 Clear 68 20 66 19 94 94 SSE 13 20 29.74 1007 7 11.265408 0 0
1:35 am 01:35 Mostly Cloudy with Mist and Fog 68 20 66 19 94 94 S 13 20 29.74 1007 5 8.04672 0 0
1:55 am 01:55 Cloudy with Mist and Fog 68 20 66 19 94 94 SSE 16 26 29.74 1007 5 8.04672 0 0
2:15 am 02:15 Cloudy 68 20 66 19 94 94 SSE 16 26 29.74 1007 7 11.265408 0 0
2:35 am 02:35 Mostly Cloudy 68 20 66 19 94 94 S 13 20 29.71 1006 7 11.265408 0 0
2:55 am 02:55 Partly Cloudy 68 20 66 19 94 94 S 12 19 29.71 1006 7 11.265408 0 0
3:15 am 03:15 Clear 68 20 66 19 94 94 S 10 17 29.71 1006 7 11.265408 0 0
3:35 am 03:35 Clear 68 20 64 18 88 88 S 14 22 29.71 1006 7 11.265408 0 0
3:55 am 03:55 Clear with Mist and Fog 68 20 64 18 88 88 SSE 14 22 29.71 1006 5 8.04672 0 0
4:15 am 04:15 Clear 68 20 64 18 88 88 SSE 14 22 29.71 1006 7 11.265408 0 0
4:35 am 04:35 Clear 66 19 64 18 94 94 SSE 16 26 29.71 1006 7 11.265408 0 0
4:55 am 04:55 Clear 68 20 64 18 88 88 S 15 24 29.71 1006 7 11.265408 0 0
5:15 am 05:15 Clear 68 20 64 18 88 88 S 16 26 29.71 1006 10 16.09344 0 0
5:35 am 05:35 Clear 68 20 64 18 88 88 S 15 24 29.71 1006 10 16.09344 0 0
5:55 am 05:55 Clear 68 20 64 18 88 88 S 15 24 29.71 1006 10 16.09344 0 0
6:15 am 06:15 Clear 66 19 64 18 94 94 S 13 20 29.71 1006 10 16.09344 0 0
6:35 am 06:35 Clear 66 19 64 18 94 94 S 12 19 29.71 1006 10 16.09344 0 0
6:55 am 06:55 Sunny 66 19 64 18 94 94 S 12 19 29.71 1006 10 16.09344 0 0
7:15 am 07:15 Sunny 66 19 64 18 94 94 S 13 20 29.71 1006 10 16.09344 0 0
7:35 am 07:35 Sunny 66 19 64 18 94 94 S 12 19 29.71 1006 10 16.09344 0 0
7:55 am 07:55 Sunny 68 20 64 18 88 88 S 12 19 29.71 1006 10 16.09344 0 0
8:15 am 08:15 Sunny 68 20 64 18 88 88 S 12 19 29.71 1006 10 16.09344 0 0
8:35 am 08:35 Sunny 68 20 64 18 88 88 S 12 19 29.71 1006 10 16.09344 0 0
8:55 am 08:55 Sunny 70 21 64 18 83 83 S 15 24 29.68 1005 10 16.09344 0 0
9:15 am 09:15 Sunny 70 21 64 18 83 83 S 17 28 29.68 1005 10 16.09344 0 0
9:35 am 09:35 Partly Cloudy 72 22 64 18 78 78 S 17 28 29.68 1005 10 16.09344 0 0
9:55 am 09:55 Mostly Cloudy 72 22 66 19 83 83 S 23 37 29.68 1005 10 16.09344 0 0
10:15 am 10:15 Partly Cloudy 73 23 66 19 78 78 SSW 22 35 29.68 1005 10 16.09344 0 0
10:35 am 10:35 Partly Cloudy 75 24 66 19 74 74 SSW 22 35 29.68 1005 10 16.09344 0 0
10:55 am 10:55 Partly Cloudy 75 24 66 19 74 74 S 15 24 29.68 1005 10 16.09344 0 0
11:15 am 11:15 Partly Cloudy 77 25 66 19 69 69 S 18 30 29.65 1004 10 16.09344 0 0
11:35 am 11:35 Partly Cloudy 77 25 66 19 69 69 S 16 26 29.65 1004 10 16.09344 0 0
11:55 am 11:55 Sunny 79 26 66 19 65 65 S 15 24 29.65 1004 10 16.09344 0 0
12:15 pm 12:15 Partly Cloudy 79 26 66 19 65 65 S 15 24 29.65 1004 10 16.09344 0 0
12:35 pm 12:35 Partly Cloudy 81 27 66 19 62 62 S 13 20 29.65 1004 10 16.09344 0 0
12:55 pm 12:55 Partly Cloudy 81 27 66 19 62 62 SSW 10 17 29.65 1004 10 16.09344 0 0
1:15 pm 13:15 Partly Cloudy 82 28 66 19 58 58 SSW 9 15 29.65 1004 10 16.09344 0 0
1:35 pm 13:35 Sunny 82 28 66 19 58 58 WSW 8 13 29.65 1004 10 16.09344 0 0
1:55 pm 13:55 Sunny 82 28 66 19 58 58 WSW 7 11 29.68 1005 10 16.09344 0 0
2:15 pm 14:15 Partly Cloudy 82 28 66 19 58 58 WNW 6 9 29.68 1005 10 16.09344 0 0
2:35 pm 14:35 Partly Cloudy 82 28 66 19 58 58 NW 7 11 29.68 1005 10 16.09344 0 0
2:55 pm 14:55 Mostly Cloudy 81 27 66 19 62 62 N 8 13 29.68 1005 10 16.09344 0 0
3:15 pm 15:15 Mostly Cloudy 81 27 66 19 62 62 N 12 19 29.71 1006 10 16.09344 0 0
3:35 pm 15:35 Partly Cloudy 79 26 63 17 58 58 N 16 26 29.71 1006 7 11.265408 0 0
3:55 pm 15:55 Sunny 79 26 61 16 54 54 N 13 20 29.74 1007 7 11.265408 0 0
4:15 pm 16:15 Sunny 79 26 61 16 54 54 N 14 22 29.74 1007 10 16.09344 0 0
4:35 pm 16:35 Sunny 77 25 61 16 57 57 N 16 26 29.77 1008 10 16.09344 0 0
4:55 pm 16:55 Partly Cloudy 77 25 59 15 54 54 N 18 30 29.8 1009 10 16.09344 0 0
5:15 pm 17:15 Partly Cloudy 75 24 59 15 57 57 N 17 28 29.8 1009 7 11.265408 0 0
5:35 pm 17:35 Sunny 75 24 57 14 54 54 N 16 26 29.8 1009 7 11.265408 0 0
5:55 pm 17:55 Sunny 72 22 55 13 57 57 N 21 33 29.85 1011 7 11.265408 0 0
6:15 pm 18:15 Sunny 72 22 55 13 57 57 N 18 30 29.85 1011 7 11.265408 0 0
6:35 pm 18:35 Sunny 70 21 55 13 60 60 N 14 22 29.85 1011 7 11.265408 0 0
6:55 pm 18:55 Sunny 70 21 55 13 60 60 N 14 22 29.85 1011 7 11.265408 0 0
7:15 pm 19:15 Sunny 68 20 54 12 60 60 N 14 22 29.85 1011 10 16.09344 0 0
7:35 pm 19:35 Sunny 66 19 54 12 64 64 N 9 15 29.91 1013 10 16.09344 0 0
7:55 pm 19:55 Sunny 66 19 55 13 68 68 N 8 13 29.91 1013 10 16.09344 0 0
8:15 pm 20:15 Sunny 66 19 55 13 68 68 NNW 9 15 29.91 1013 10 16.09344 0 0
8:35 pm 20:35 Partly Cloudy 66 19 54 12 64 64 NNW 8 13 29.91 1013 10 16.09344 0 0
8:55 pm 20:55 Partly Cloudy 66 19 54 12 64 64 NNW 7 11 29.94 1014 10 16.09344 0 0
9:15 pm 21:15 Clear 64 18 54 12 68 68 NNW 8 13 29.97 1015 10 16.09344 0 0
9:35 pm 21:35 Clear 63 17 54 12 73 73 N 13 20 29.94 1014 10 16.09344 0 0
9:55 pm 21:55 Clear 64 18 52 11 64 64 N 14 22 29.97 1015 10 16.09344 0 0
10:15 pm 22:15 Clear 64 18 50 10 60 60 N 13 20 30 1016 10 16.09344 0 0
10:35 pm 22:35 Clear 63 17 48 9 59 59 N 14 22 30 1016 10 16.09344 0 0
10:55 pm 22:55 Clear 63 17 46 8 56 56 N 14 22 30 1016 10 16.09344 0 0
11:15 pm 23:15 Clear 61 16 46 8 59 59 N 13 20 30.06 1018 10 16.09344 0 0
11:35 pm 23:35 Clear 61 16 46 8 59 59 N 13 20 30.06 1018 10 16.09344 0 0
11:55 pm 23:55 Clear 61 16 46 8 59 59 N 14 22 30.09 1019 10 16.09344 0 0

Powered by AerisWeather